Track COSMOS 2299 now! 10-day predictions COSMOS 2299 is classified as:
1 23441U 94086A 22183.34091441 .00000018 00000-0 42432-4 0 9991 2 23441 82.5689 143.0693 0006104 242.1558 117.8916 12.63737145269074